Overview Statistics Trail Chart Weather Telemetry Raw packets
 

This is the latest recevied weather packets stored in our database for station/object WW6Q. If no packets are shown the sender has not sent any weather packets the latest 10 day(s).

<< 50 51 52 53 54 55 56 >>
Time Temp. Humidity Pressure Rain* Wind** Luminosity Snow
1788284338 30° C 71% 1015.6 hPa 0 mm - 386 W/m² -
1788284033 30° C 74% 1015.4 hPa 0 mm - 954 W/m² -
1788283730 30° C 69% 1015.3 hPa 0 mm - 857 W/m² -
1788283429 29.44° C 70% 1015.2 hPa 0 mm - 786 W/m² -
1788283127 29.44° C 72% 1015.2 hPa 0 mm - 794 W/m² -
1788282826 29.44° C 69% 1015 hPa 0 mm - 778 W/m² -
1788282525 28.89° C 72% 1015.3 hPa 0 mm - 750 W/m² -
1788282220 29.44° C 70% 1015.5 hPa 0 mm - 752 W/m² -
1788281920 29.44° C 73% 1015.3 hPa 0 mm - 755 W/m² -
1788281614 29.44° C 71% 1015.5 hPa 0 mm - 782 W/m² -
1788281311 28.89° C 73% 1015.3 hPa 0 mm - 797 W/m² -
1788281006 28.33° C 70% 1015.5 hPa 0 mm - 754 W/m² -
1788280706 27.78° C 73% 1015.6 hPa 0 mm - 753 W/m² -
1788280401 27.22° C 75% 1015.6 hPa 0 mm - 315 W/m² -
1788280096 27.22° C 75% 1015.7 hPa 0 mm - 621 W/m² -
1788279795 27.22° C 76% 1015.6 hPa 0 mm - 665 W/m² -
1788279494 27.78° C 72% 1015.7 hPa 0 mm - 228 W/m² -
1788279188 28.33° C 71% 1015.8 hPa 0 mm - 277 W/m² -
1788278884 28.89° C 71% 1015.6 hPa 0 mm - 246 W/m² -
1788278580 28.33° C 73% 1015.8 hPa 0 mm - 307 W/m² -
1788278279 28.89° C 70% 1015.6 hPa 0 mm - 276 W/m² -
1788277974 28.89° C 68% 1015.6 hPa 0 mm - 348 W/m² -
1788277670 28.33° C 70% 1015.6 hPa 0 mm - 696 W/m² -
1788277370 28.33° C 72% 1015.6 hPa 0 mm - 719 W/m² -
1788277065 28.89° C 70% 1015.8 hPa 0 mm - 249 W/m² -

* Rain latest hour (hover to see other rain measurements)
** Current wind speed in m/s (hover to see current wind gust speed)